Flag Weather past 2 weeks in Rapid City, South Dakota, U.S.A.

Now
49 °F

Clear.


Feels Like: 45 °F
Forecast: 17 / 50 °F
Wind: 13 mph from West

Location: Ellsworth Air Force Base

Current Time: Nov 28, 2014 at 11:37:19 PM

Latest Report: Nov 28, 2014 at 10:58 PM


Visibility: 10 mi

Pressure: 29.45 "Hg

Humidity: 35%

Dew point: 23 °F

Location of Rapid CityLocation

Historic Weather in Rapid City — Graph

°F

Rapid City temperature yesterday

Maximum temperature yesterday: 42 °F (at 10:58 PM)
Minimum temperature yesterday: 20 °F (at 5:58 AM)
Average temperature yesterday: 28 °F

Past Weeks' High & Low Weather Summary

 TemperatureHumidityPressure
High63 °F (Nov 28, 1:58 PM)95% (Nov 27, 10:58 AM)30.43 "Hg (Nov 27, 10:58 AM)
Low-7 °F (Nov 15, 10:58 PM)32% (Nov 28, 5:58 PM)29.41 "Hg (Nov 22, 7:59 PM)
Average25 °F72%30.05 "Hg
* Reported Nov 13 9:58 PM — Nov 28 9:58 PM, Rapid City, Weather by CustomWeather, © 2014

Note: Actual official high and low records may vary slightly from our data, if they occured in-between our weather recording intervals... More about our weather records

Advertising

Rapid City weather history for previous 24 hours

 ConditionsComfort  
Time TempWeatherWind HumidityBarometerVisibility
9:58 PM
Nov 28
50 °FClear.9 mph34%29.48 "Hg10 mi
8:58 PM53 °FClear.13 mph34%29.51 "Hg10 mi
7:58 PM49 °FClear.8 mph40%29.54 "Hg10 mi
6:58 PM48 °FClear.7 mph38%29.57 "Hg10 mi
5:58 PM52 °FClear.7 mph32%29.57 "Hg10 mi
4:58 PM49 °FClear.7 mph38%29.57 "Hg10 mi
3:58 PM50 °FSunny.8 mph48%29.59 "Hg10 mi
2:58 PM61 °FSunny.3 mph35%29.55 "Hg10 mi
1:58 PM63 °FSunny.5 mph33%29.55 "Hg9 mi
12:58 PM61 °FSunny.7 mph38%29.59 "Hg9 mi
11:58 AM60 °FSunny.6 mph41%29.62 "Hg8 mi
10:58 AM49 °FSunny.No wind56%29.67 "Hg9 mi
9:58 AM46 °FPartly sunny.6 mph59%29.72 "Hg9 mi
8:58 AM40 °FPassing clouds.3 mph69%29.74 "Hg10 mi
7:58 AM35 °FSunny.6 mph76%29.78 "Hg10 mi
6:58 AM36 °FClear.7 mph70%29.77 "Hg10 mi
5:58 AM39 °FClear.7 mph63%29.78 "Hg10 mi
4:58 AM48 °FClear.5 mph45%29.74 "Hg10 mi
3:58 AM41 °FClear.6 mph60%29.75 "Hg10 mi
2:58 AM44 °FClear.8 mph55%29.75 "Hg10 mi
1:58 AM43 °FPassing clouds.8 mph56%29.79 "Hg10 mi
12:58 AM43 °FClear.3 mph54%29.84 "Hg10 mi
11:58 PM
Nov 27
40 °FClear.3 mph60%29.88 "Hg10 mi
Weather by CustomWeather, © 2014

See weather overviewHow to use our weather pages